Regional Weather Roundup
Issued by NWS Wakefield, VA

Home | Current Version | Previous Version | Text Only | Print | Product List | Glossary Off
Versions: 1 2 3 4 5 6 7 8 9 10 11 12 13 14 15 16 17 18 19 20 21 22 23 24 25 26 27 28 29 30 31 32 33 34 35 36 37 38 39 40 41 42 43 44 45 46 47 48 49 50

000
ASUS41 KAKQ 021715
RWRAKQ

REGIONAL WEATHER ROUNDUP
NATIONAL WEATHER SERVICE WAKEFIELD VA
100 PM EDT THU JUL 02 2015

Note: "fair" indicates few or no clouds below 12,000 feet with no
significant weather and/or obstructions to visibility. * = Denotes
station may not report precipitation (e.g., rain,snow,etc.),
thunder or fog.

VAZ042-051-052>054-056-021800-
NORTHERN VIRGINIA

CITY           SKY/WX    TMP DP  RH WIND       PRES   REMARKS
WASH NATIONAL  CLOUDY    76  65  68 CALM      29.90S
DULLES         CLOUDY    72  62  71 N8        29.91S
FORT BELVOIR   PTSUNNY   73  65  74 NW1       29.90S
QUANTICO       CLOUDY    74  62  66 N5        29.91R
FREDERICKSBRG* NOT AVBL
STAFFORD*      NOT AVBL
WARRENTON      NOT AVBL
CULPEPER*      CLOUDY    72  65  79 N7        29.92F
MANASSAS*      NOT AVBL
LEESBURG*      NOT AVBL
WINCHESTER     NOT AVBL
FRONT ROYAL*   NOT AVBL
LURAY*         NOT AVBL
$$

VAZ048-049-060>072-079>083-021800-
CENTRAL AND SOUTH CENTRAL VIRGINIA

CITY           SKY/WX    TMP DP  RH WIND       PRES   REMARKS
RICHMOND       CLOUDY    82  70  66 W9        29.86F
CHESTERFIELD*  NOT AVBL
PETERSBURG*    NOT AVBL
HANOVER        PTSUNNY   77  70  79 VRB5      29.88F HAZE
TAPPAHANNOCK*  PTSUNNY   79  67  66 NW5       29.88S
QUINTON*       NOT AVBL
CHARLOTTSVILLE CLOUDY    75  63  66 NE5       29.92S
GORDONSVILLE*  NOT AVBL
ORANGE*        NOT AVBL
LOUISA*        NOT AVBL
BUMPASS*       NOT AVBL
FARMVILLE*     NOT AVBL
CREWE*         NOT AVBL
FORT PICKETT*  NOT AVBL
CHASE CITY*    NOT AVBL
CLARKSVILLE*   NOT AVBL
SOUTH HILL*    NOT AVBL
LAWRENCEVILLE* NOT AVBL
EMPORIA*       NOT AVBL
$$

VAZ088>098-021800-
SOUTHEAST VIRGINIA

CITY           SKY/WX    TMP DP  RH WIND       PRES   REMARKS
NORFOLK        PTSUNNY   83  70  64 SW14      29.86F
VIRGINIA BEACH CLOUDY    86  72  62 SW10      29.86F
NORFOLK NAVAL  CLOUDY    81  71  71 SW9       29.88S HAZE
WEST POINT*    NOT AVBL
SALUDA*        NOT AVBL
NEWPORT NEWS   CLOUDY    80  72  76 SW10      29.87S HAZE
LANGLEY AFB    CLOUDY    80  72  76 SW10      29.85S
FORT EUSTIS    PTSUNNY   79  77  93 VRB5      29.85S
WILLIAMSBURG*  NOT AVBL
HR EXEC AP*    FAIR      82  72  69 SW9       29.89F
FRANKLIN*      CLOUDY    82  72  72 W9        29.89F
WAKEFIELD      CLOUDY    82  71  69 SW8       29.87F HAZE
$$

VAZ020-022-025-037-045-021800-
WEST CENTRAL AND SOUTHWEST VIRGINIA

CITY           SKY/WX    TMP DP  RH WIND       PRES   REMARKS
STAUNTON*      NOT AVBL
WAYNESBORO*    NOT AVBL
HOT SPRINGS VA CLOUDY    65  65  99 W7        30.04S
LYNCHBURG      CLOUDY    76  63  64 N7        29.93F
DANVILLE       PTSUNNY   82  67  60 SW8       29.91F
SOUTH BOSTON*  NOT AVBL
MARTINSVILLE   CLOUDY    82  65  56 NW3       29.96R
ROANOKE        CLOUDY    76  62  62 W10       29.96S
BLACKSBURG     CLOUDY    70  63  79 W3        30.02S
DUBLIN*        NOT AVBL
MARION*        NOT AVBL
HILLSVILLE*    NOT AVBL
RICHLANDS*     NOT AVBL
WISE*          NOT AVBL
ABINGDON*      NOT AVBL
$$

MDZ021>025-VAZ099-100-021800-
SOUTHERN MARYLAND AND THE DELMARVA PENINSULA

CITY           SKY/WX    TMP DP  RH WIND       PRES   REMARKS
PATUXENT RIVER PTSUNNY   75  67  76 N9        29.87S
BAY BRIDGE APT   N/A     72  64  78 E3        29.89S
LEONARDTOWN    PTSUNNY   73  64  73 N3        29.90R
DOVER          CLOUDY    69  69 100 N6        29.87S
GEORGETOWN     CLOUDY    71  68  90 NE16      29.88S FOG
EASTON         CLOUDY    72  72 100 NE8       29.92S FOG
CAMBRIDGE      CLOUDY    73  68  83 NE6       29.87S
SALISBURY      PTSUNNY   73  69  87 N6        29.87S
OCEAN CITY     LGT RAIN  71  69  93 N10       29.87R
WALLOPS ISLAND PTSUNNY   83  75  77 W10       29.85S
ACCOMACK*      NOT AVBL
$$

NCZ012>017-030>032-021800-
NORTH CENTRAL AND EASTERN NORTH CAROLINA

CITY           SKY/WX    TMP DP  RH WIND       PRES   REMARKS
ROANOKE RAPIDS NOT AVBL
RALEIGH        PTSUNNY   85  69  58 W9G17     29.92F
ELIZABETH CITY MOSUNNY   85  73  67 S12       29.89F
AHOSKIE*       MOSUNNY   83  70  64 S3        29.89F
EDENTON*       NOT AVBL
CURRITUCK*     MOSUNNY   86  69  55 SW9       29.89
KILL DEVIL HLS NOT AVBL
MANTEO         NOT AVBL
CAPE HATTERAS  MOSUNNY   82  75  79 SW14G20   29.94F
TARBORO*       NOT AVBL
GOLDSBORO      PTSUNNY   84  68  57 SW10G20   29.91S
WASHINGTON     NOT AVBL
GREENVILLE     CLOUDY    86  70  58 SW10      29.93S
NEW BERN       PTSUNNY   88  69  53 W12       29.94F
WILMINGTON     MOSUNNY   86  69  56 W14       29.96F
$$

VAZ048-021800-
ELSEWHERE

CITY           SKY/WX    TMP DP  RH WIND       PRES   REMARKS
HARRISBURG PA  PTSUNNY   76  61  59 CALM      29.90S
BALTIMORE      CLOUDY    73  64  73 NE6       29.89F
ANNAPOLIS      CLOUDY    72  65  78 N3        29.89S
ANDREWS AFB    PTSUNNY   71  65  81 NE5       29.89F
PHILADELPHIA   CLOUDY    75  63  66 E7        29.91S
GREENSBORO     CLOUDY    84  63  49 W12       29.93S
ROCKY MOUNT    MOSUNNY   85  69  58 SW10      29.91S
$$

VAZ100-021800-
MARINE

STATION/POSITION TIME  TEMP    WIND        PRES    WAVE   SWELL
                       AIR SEA DIR/SP/G            HT/PER HT/PER
                 (UTC) (F)     (DEG/KT/KT) (MB)    (FT/S) (FT/S)
BRANDYWINE LGT   1600      73              1012.4R
CAPE MAY NJ      1600      77              1011.8R
LEWES DE         1600      73              1011.6S
15NM E FENWICK I 1650   69 74              1011.4R   4/ 9
OCEAN-CITY-INLET 1600      70              1011.6R
WACHAPREAGUE VA  1600      80              1011.0F
THOMAS POINT MD  1600           30/ 13       N/A
GOOSES REEF MD   1700   73 78   40/ 10/ 12 1012.9R
COVE POINT MD    1600                      1012.3F
SOLOMONS ISLAND  1600      80                N/A
BISHOPS HEAD MD  1600                      1011.0F
CAMBRIDGE MD     1600      79              1011.3F
LEWISETTA VA     1600      80              1011.3R
RAPPAHANNOCK LGT 1600                      1011.6S
STINGRAY PT      1700   80 81  240/  6/  6 1011.1F   1
YORK RVR RNG VA  1600                      1010.5F
YORKTOWN VA      1600      80              1010.7F
JAMESTOWN VA     1700   79 83  230/  8/ 10   N/A
DOMINION TERM VA 1600                      1011.4F
KIPTOPEKE VA     1600      83                N/A
CHES BAY BRIDGE  1600      74              1010.9F
CAPE HENRY VA    1600                      1009.9F
CHESAPEAKE LGHT  1600   78     200/ 15/ 16 1012.1F
WILLOUBY STN VA  1600                      1012.3F
CAPE HENRY BUOY  1628      78                N/A     3/ 9
1ST LANDING BUOY 1700      77              1011.0F   1/ 4
CAPE CHARLES BUO 1626      77                N/A     3/ 8   2/ 8
OFFSHORE WE BUOY 1611      78                N/A     4/ 8   3/ 8
64NM E OF VA BCH 1650   79 77  200/ 14/ 17 1011.7F   5/ 8   3/ 8
DUCK PIER NC     1600      62              1011.7F
44100 DUCK FRF   1624      78                N/A     2/ 8
44056 DUCK FRF   1611      72                N/A     2/ 8
OREGON INLET NC  1600      81              1013.0F
HATTERAS NC      1600      79              1013.8F
DIAMOND SHLS NC  1650   82 83  230/ 17/ 19 1014.0F   4/ 8   2/ 8
CAPE LOOKOUT NC  1700   84     230/ 13/ 17 1014.2F
$$



USA.gov is the U.S. government's official web portal to all federal, state and local government web resources and services.